Time,TemperatureF,DewpointF,PressureIn,WindDirection,WindDirectionDegrees,WindSpeedMPH,WindSpeedGustMPH,Humidity,HourlyPrecipIn,Conditions,Clouds,dailyrainin,SoftwareType,DateUTC
2013-03-31 02:00:00,36.0,35.0,29.76,East,100,1.0,-999.0,97,-99.99,,,-99.99,,2013-03-31 06:00:00,
2013-03-31 02:21:00,36.0,35.0,29.76,East,100,1.0,-999.0,97,-99.99,,,-99.99,,2013-03-31 06:21:00,
2013-03-31 02:32:00,36.0,35.0,29.76,East,100,1.0,-999.0,97,-99.99,,,-99.99,,2013-03-31 06:32:00,
2013-03-31 02:42:00,36.0,35.0,29.76,East,100,1.0,-999.0,97,-99.99,,,-99.99,,2013-03-31 06:42:00,
2013-03-31 02:52:00,36.0,35.0,29.76,East,100,1.0,-999.0,97,-99.99,,,-99.99,,2013-03-31 06:52:00,
2013-03-31 05:00:00,36.0,35.0,29.67,North,0,0.0,-999.0,97,-99.99,,,-99.99,,2013-03-31 09:00:00,
2013-03-31 05:21:00,36.0,35.0,29.67,North,0,0.0,-999.0,97,-99.99,,,-99.99,,2013-03-31 09:21:00,
2013-03-31 05:32:00,36.0,35.0,29.67,North,0,0.0,-999.0,97,-99.99,,,-99.99,,2013-03-31 09:32:00,
2013-03-31 05:42:00,36.0,35.0,29.67,North,0,0.0,-999.0,97,-99.99,,,-99.99,,2013-03-31 09:42:00,
2013-03-31 05:52:00,36.0,35.0,29.67,North,0,0.0,-999.0,97,-99.99,,,-99.99,,2013-03-31 09:52:00,
2013-03-31 08:00:00,36.0,36.0,29.63,ESE,120,2.0,-999.0,99,-99.99,,,-99.99,,2013-03-31 12:00:00,
2013-03-31 08:21:00,36.0,36.0,29.63,ESE,120,2.0,-999.0,99,-99.99,,,-99.99,,2013-03-31 12:21:00,
2013-03-31 08:32:00,36.0,36.0,29.63,ESE,120,2.0,-999.0,99,-99.99,,,-99.99,,2013-03-31 12:32:00,
2013-03-31 08:41:00,36.0,36.0,29.63,ESE,120,2.0,-999.0,99,-99.99,,,-99.99,,2013-03-31 12:41:00,
2013-03-31 08:52:00,36.0,36.0,29.63,ESE,120,2.0,-999.0,99,-99.99,,,-99.99,,2013-03-31 12:52:00,
2013-03-31 11:00:00,36.0,36.0,29.59,North,0,0.0,-999.0,99,-99.99,,,-99.99,,2013-03-31 15:00:00,
2013-03-31 11:21:00,36.0,36.0,29.59,North,0,0.0,-999.0,99,-99.99,,,-99.99,,2013-03-31 15:21:00,
2013-03-31 11:32:00,36.0,36.0,29.59,North,0,0.0,-999.0,99,-99.99,,,-99.99,,2013-03-31 15:32:00,
2013-03-31 11:42:00,36.0,36.0,29.59,North,0,0.0,-999.0,99,-99.99,,,-99.99,,2013-03-31 15:42:00,
2013-03-31 11:53:00,36.0,36.0,29.59,North,0,0.0,-999.0,99,-99.99,,,-99.99,,2013-03-31 15:53:00,
2013-03-31 14:00:00,35.0,34.0,29.56,SW,230,9.0,-999.0,95,-99.99,,,-99.99,,2013-03-31 18:00:00,
2013-03-31 14:21:00,35.0,34.0,29.56,SW,230,9.0,-999.0,95,-99.99,,,-99.99,,2013-03-31 18:21:00,
2013-03-31 14:31:00,35.0,34.0,29.56,SW,230,9.0,-999.0,95,-99.99,,,-99.99,,2013-03-31 18:31:00,
2013-03-31 14:41:00,35.0,34.0,29.56,SW,230,9.0,-999.0,95,-99.99,,,-99.99,,2013-03-31 18:41:00,
2013-03-31 14:52:00,35.0,34.0,29.56,SW,230,9.0,-999.0,95,-99.99,,,-99.99,,2013-03-31 18:52:00,
2013-03-31 17:00:00,34.0,33.0,29.57,West,280,6.0,-999.0,95,-99.99,,,-99.99,,2013-03-31 21:00:00,
2013-03-31 17:21:00,34.0,33.0,29.57,West,280,6.0,-999.0,95,-99.99,,,-99.99,,2013-03-31 21:21:00,
2013-03-31 17:33:00,34.0,33.0,29.57,West,280,6.0,-999.0,95,-99.99,,,-99.99,,2013-03-31 21:33:00,
2013-03-31 17:42:00,34.0,33.0,29.57,West,280,6.0,-999.0,95,-99.99,,,-99.99,,2013-03-31 21:42:00,
2013-03-31 17:52:00,34.0,33.0,29.57,West,280,6.0,-999.0,95,-99.99,,,-99.99,,2013-03-31 21:52:00,
2013-03-31 20:00:00,32.0,24.0,29.59,West,280,23.0,-999.0,71,-99.99,,,-99.99,,2013-04-01 00:00:00,
2013-03-31 20:31:00,32.0,24.0,29.59,West,280,23.0,-999.0,71,-99.99,,,-99.99,,2013-04-01 00:31:00,
2013-03-31 20:42:00,32.0,24.0,29.59,West,280,23.0,-999.0,71,-99.99,,,-99.99,,2013-04-01 00:42:00,
2013-03-31 20:52:00,32.0,24.0,29.59,West,280,23.0,-999.0,71,-99.99,,,-99.99,,2013-04-01 00:52:00,